"TOA5","AWS1","CR1000","7964","CR1000.Std.14","CPU:AWS1_114.CR1","64363","TBL110"
"TIMESTAMP","RECORD","Wind_spd_WVc(1)","Wind_spd_WVc(2)","Air_Temp_Avg","Humidity_Avg","SW_upper_Wm2_Avg","Rain_Tot","Press_Avg","Issui_Tot","Depth_cm","SR50A_Raw","Quality","Ground_Temp_Avg(1)","Ground_Temp_Avg(2)","SW_lower_Wm2_Avg","Albedo_Avg","SWC_per(1)","SWC_per(2)","Period(1)","Period(2)"
"TS","RN","","","","","","","","","","","","","","","","","","",""
"","","WVc","WVc","Avg","Avg","Avg","Tot","Avg","Tot","Smp","Smp","Smp","Avg","Avg","Avg","Avg","Smp","Smp","Smp","Smp"
"2016-01-08 00:00:00",217069,0.352,106,-4.55,86.9,0,0,862.0618,0,5.638,3.15,187,1.673,2.456,0.05688196,0,50.39,57.97,33.39,35.21
"2016-01-08 00:10:00",217070,0.847,63.54,-4.501,84.5,0,0,862.0471,0,5.49,3.152,180,1.676,2.477,0,0,50.39,58.03,33.39,35.22
"2016-01-08 00:20:00",217071,1.077,51.34,-4.642,86.2,0,0,862.0261,0,5.589,3.151,174,1.675,2.472,0.02275278,0,50.39,57.97,33.39,35.21
"2016-01-08 00:30:00",217072,0.813,64.91,-4.584,87.1,0,0,861.986,0,5.415,3.152,175,1.674,2.473,0.2578649,0,50.39,57.97,33.39,35.21
"2016-01-08 00:40:00",217073,0.729,68.05,-4.482,85.1,0,0,861.8174,0,5.439,3.151,174,1.674,2.458,0.261657,0,50.39,57.97,33.39,35.21
"2016-01-08 00:50:00",217074,0.571,30.05,-4.432,85.1,0,0,861.7099,0,5.564,3.15,187,1.673,2.453,0.2123593,0,50.39,57.97,33.39,35.21
"2016-01-08 01:00:00",217075,0.839,42.83,-4.512,86.1,0,0,861.7584,0,5.638,3.149,176,1.673,2.464,0.1289324,0,50.39,58.03,33.39,35.22
"2016-01-08 01:10:00",217076,0.533,59.74,-4.151,80.2,0,0,861.6719,0,5.709,3.145,179,1.673,2.457,0.5460667,0,50.39,57.97,33.39,35.21
"2016-01-08 01:20:00",217077,0.525,79.16,-3.858,75.95,0,0,861.5202,0,5.634,3.145,180,1.673,2.453,0.5233139,0,50.33,57.97,33.38,35.21
"2016-01-08 01:30:00",217078,0.663,67.81,-3.571,71.86,0,0,861.518,0,5.633,3.144,171,1.673,2.452,0.6977519,0,50.33,58.03,33.38,35.22
"2016-01-08 01:40:00",217079,0.49,302.4,-3.472,70.97,0,0,861.5202,0,5.584,3.145,179,1.67,2.452,0.7053362,0,50.39,57.97,33.39,35.21
"2016-01-08 01:50:00",217080,0.391,317.6,-3.589,72.48,0,0,861.5202,0,5.485,3.146,179,1.644,2.452,0.3223311,0,50.39,58.03,33.39,35.22
"2016-01-08 02:00:00",217081,0.164,307.9,-3.683,74.65,0,0,861.3558,0,5.262,3.149,178,1.642,2.456,0.2199436,0,50.39,57.97,33.39,35.21
"2016-01-08 02:10:00",217082,0.277,286.4,-3.796,75.13,0,0,861.2504,0,5.634,3.146,188,1.642,2.453,0.2275278,0,50.39,57.97,33.39,35.21
"2016-01-08 02:20:00",217083,0.192,320.7,-4.012,80.9,0,0,861.2673,0,5.438,3.15,188,1.642,2.453,0.087219,0,50.39,57.97,33.39,35.21
"2016-01-08 02:30:00",217084,0.252,146.7,-4.353,85.7,0,0,861.2567,0,5.514,3.151,187,1.652,2.453,0,0,50.39,57.97,33.39,35.21
"2016-01-08 02:40:00",217085,0.098,140.5,-4.451,86,0,0,861.2567,0,5.489,3.151,192,1.659,2.473,0,0,50.39,57.97,33.39,35.21
"2016-01-08 02:50:00",217086,0.218,154.2,-4.406,84.9,0,0,861.0607,0,5.414,3.151,187,1.652,2.468,0.09859539,0,50.39,57.97,33.39,35.21
"2016-01-08 03:00:00",217087,0.217,249.7,-4.285,83.6,0,0,861.0144,0,5.339,3.151,174,1.655,2.462,0.2237357,0,50.39,57.97,33.39,35.21
"2016-01-08 03:10:00",217088,0.284,129.4,-4.251,82.8,0,0,860.793,0,5.265,3.152,171,1.647,2.456,0.09859539,0,50.39,57.97,33.39,35.21
"2016-01-08 03:20:00",217089,0.551,143.9,-4.25,82.2,0,0,860.7572,0,5.264,3.152,170,1.649,2.453,0.2275278,0,50.39,57.97,33.39,35.21
"2016-01-08 03:30:00",217090,0.068,221.8,-4.156,81.8,0,0,860.7678,0,5.189,3.152,174,1.659,2.482,0.2275278,0,50.33,57.97,33.38,35.21
"2016-01-08 03:40:00",217091,0.321,157.4,-4.2,82.5,0,0,860.5886,0,5.166,3.153,171,1.654,2.456,0.2275278,0,50.39,57.97,33.39,35.21
"2016-01-08 03:50:00",217092,0.361,104.2,-4.364,84.3,0,0,860.4411,0,5.166,3.154,170,1.661,2.452,0.04550556,0,50.39,57.97,33.39,35.21
"2016-01-08 04:00:00",217093,0.174,86.7,-4.427,84.8,0,0,860.5085,0,5.092,3.155,171,1.652,2.46,0.1251403,0,50.33,57.97,33.38,35.21
"2016-01-08 04:10:00",217094,0.496,126,-4.502,85.7,0,0,860.5001,0,5.191,3.154,187,1.669,2.486,0.2275278,0,50.39,57.97,33.39,35.21
"2016-01-08 04:20:00",217095,0.39,146.5,-4.39,85.6,0,0,860.5043,0,5.141,3.154,192,1.683,2.513,0.2275278,0,50.39,57.97,33.39,35.21
"2016-01-08 04:30:00",217096,0.541,153.5,-4.146,83.1,0,0,860.4916,0,4.99,3.153,187,1.656,2.487,0.3564602,0,50.39,57.97,33.39,35.21
"2016-01-08 04:40:00",217097,0.568,159,-4.013,82.3,0,0,860.3947,0,5.015,3.153,187,1.652,2.49,0.2275278,0,50.33,57.97,33.38,35.21
"2016-01-08 04:50:00",217098,0.563,158.4,-3.893,81.8,0,0,860.4895,0,5.138,3.15,170,1.655,2.482,0.3337075,0,50.39,57.97,33.39,35.21
"2016-01-08 05:00:00",217099,0.185,175.6,-3.705,82.1,0,0,860.5085,0,5.436,3.147,176,1.676,2.506,0.2426963,0,50.39,57.97,33.39,35.21
"2016-01-08 05:10:00",217100,0.328,155.7,-3.717,82.7,0,0,860.5085,0,5.436,3.147,179,1.71,2.536,0.2275278,0,50.39,57.97,33.39,35.21
"2016-01-08 05:20:00",217101,0.403,144.7,-3.679,83.4,0,0,860.5085,0,5.534,3.146,188,1.691,2.521,0.2275278,0,50.39,57.97,33.39,35.21
"2016-01-08 05:30:00",217102,0.576,144.3,-3.599,83.4,0,0,860.5085,0,5.435,3.146,192,1.688,2.51,0.2275278,0,50.39,57.97,33.39,35.21
"2016-01-08 05:40:00",217103,0.391,147.7,-3.462,83,0,0,860.5085,0,5.409,3.145,176,1.709,2.529,0.2313199,0,50.33,57.97,33.38,35.21
"2016-01-08 05:50:00",217104,0.42,167.7,-3.309,81.9,0,0,860.5085,0,5.483,3.144,174,1.727,2.537,0.2426963,0,50.33,57.97,33.38,35.21
"2016-01-08 06:00:00",217105,0.366,151.6,-3.223,81.5,0,0,860.5886,0,5.483,3.144,171,1.722,2.537,0.2389042,0,50.33,57.97,33.38,35.21
"2016-01-08 06:10:00",217106,0.727,143,-3.334,83.3,0,0,860.5549,0,5.61,3.143,189,1.721,2.536,0.2199434,0,50.39,57.97,33.39,35.21
"2016-01-08 06:20:00",217107,0.6,150.2,-3.459,85.1,0,0,860.5085,0,5.637,3.144,188,1.712,2.531,0.07584154,0,50.33,57.97,33.38,35.21
"2016-01-08 06:30:00",217108,0.496,159.3,-3.522,85.8,0,0,860.5085,0,5.536,3.145,177,1.717,2.532,0.1668508,0,50.39,57.97,33.39,35.21
"2016-01-08 06:40:00",217109,0.673,158,-3.412,86.1,0,0,860.6434,0,5.659,3.143,188,1.72,2.534,0.2275258,0,50.33,57.97,33.38,35.21
"2016-01-08 06:50:00",217110,0.466,149.3,-3.381,86.3,0,0,860.7545,0,5.641,3.143,188,1.708,2.524,0.2275195,0,50.39,57.97,33.39,35.21
"2016-01-08 07:00:00",217111,0.671,139.9,-3.366,87.1,0,0,860.7597,0,5.637,3.143,188,1.706,2.521,0.6901398,0,50.39,57.97,33.39,35.21
"2016-01-08 07:10:00",217112,0.771,149.6,-3.357,87.5,0.09438931,0,860.761,0,5.636,3.143,193,1.712,2.531,1.547155,2.587,50.33,57.97,33.38,35.21
"2016-01-08 07:20:00",217113,0.517,144.4,-3.38,87.3,0.7039841,0,860.7513,0,5.612,3.143,193,1.712,2.527,2.927453,4.167,50.33,57.97,33.38,35.21
"2016-01-08 07:30:00",217114,0.508,150.8,-3.3,86.2,1.242789,0,860.748,0,5.685,3.142,194,1.711,2.523,4.296383,3.522,50.33,57.91,33.38,35.2
"2016-01-08 07:40:00",217115,0.519,151.8,-3.257,85.6,2.25354,0,860.7661,0,5.684,3.142,194,1.711,2.498,6.143111,2.743,50.39,57.97,33.39,35.21
"2016-01-08 07:50:00",217116,0.672,155.9,-3.215,85.3,3.401978,0,860.7639,0,5.932,3.139,193,1.714,2.493,8.486689,2.5,50.39,57.97,33.39,35.21
"2016-01-08 08:00:00",217117,0.605,151.8,-3.244,86.5,5.120684,0,860.9703,0,5.983,3.139,192,1.715,2.498,11.36872,2.223,50.33,57.97,33.38,35.21
"2016-01-08 08:10:00",217118,0.54,143.9,-3.266,88,7.605993,0,860.9941,0,5.989,3.139,175,1.704,2.49,16.27883,2.139,50.33,57.97,33.38,35.21
"2016-01-08 08:20:00",217119,0.537,140.8,-3.311,89.1,10.75597,0,861.006,0,6.116,3.138,187,1.7,2.483,21.87159,2.034,50.33,57.97,33.38,35.21
"2016-01-08 08:30:00",217120,0.671,146.5,-3.331,90.1,11.21969,0,861.1088,0,6.147,3.138,187,1.692,2.487,22.74682,2.025,50.39,57.97,33.39,35.21
"2016-01-08 08:40:00",217121,0.566,147.2,-3.391,91,10.95987,0,861.2881,0,6.174,3.138,187,1.69,2.468,22.27608,2.032,50.33,57.97,33.38,35.21
"2016-01-08 08:50:00",217122,0.74,137.2,-3.387,91.4,15.3994,0,861.2361,0,6.224,3.137,188,1.694,2.493,31.30733,2.032,50.39,57.97,33.39,35.21
"2016-01-08 09:00:00",217123,0.781,144.8,-3.356,90.8,17.73136,0,861.2473,0,6.225,3.137,188,1.693,2.5,36.31611,2.048,50.33,57.97,33.38,35.21
"2016-01-08 09:10:00",217124,0.643,145.2,-3.315,90.5,19.71277,0,861.2404,0,6.205,3.137,187,1.695,2.502,40.14834,2.036,50.39,57.97,33.39,35.21
"2016-01-08 09:20:00",217125,0.719,147.7,-3.275,90.4,21.84382,0,861.2418,0,6.104,3.138,188,1.706,2.51,44.86065,2.053,50.33,57.97,33.38,35.21
"2016-01-08 09:30:00",217126,0.691,145.2,-3.262,90,21.10879,0,861.3178,0,6.203,3.136,192,1.715,2.504,43.15889,2.046,50.39,57.97,33.39,35.21
"2016-01-08 09:40:00",217127,0.751,133,-3.019,88.5,32.93324,0,861.4188,0,6.105,3.136,193,1.717,2.498,68.99035,2.092,50.39,57.97,33.39,35.21
"2016-01-08 09:50:00",217128,0.447,142.3,-2.842,87.3,30.00625,0,861.3842,0,6.09,3.135,190,1.705,2.483,61.04822,2.026,50.39,57.97,33.39,35.21
"2016-01-08 10:00:00",217129,0.412,119.9,-2.781,86.8,27.95582,0,861.4673,0,6.072,3.135,192,1.69,2.468,55.03164,1.971,50.33,57.97,33.38,35.21
"2016-01-08 10:10:00",217130,0.531,150.1,-2.721,86.2,31.24209,0,861.4307,0,6.1,3.135,188,1.693,2.46,61.74788,1.975,50.33,57.97,33.38,35.21
"2016-01-08 10:20:00",217131,0.646,131.1,-2.843,86.3,21.12502,0,861.4094,0,6.153,3.135,189,1.683,2.454,41.41945,1.957,50.39,57.97,33.39,35.21
"2016-01-08 10:30:00",217132,0.356,105.5,-2.891,86.8,13.68608,0,861.2598,0,6.179,3.134,191,1.693,2.451,26.78243,1.954,50.33,57.97,33.38,35.21
"2016-01-08 10:40:00",217133,0.198,349.1,-2.753,88.1,12.87611,0,861.1986,0,6.179,3.134,191,1.731,2.45,26.51316,2.046,50.39,57.97,33.39,35.21
"2016-01-08 10:50:00",217134,0.219,102.7,-2.715,89.1,16.05678,0,861.2324,0,6.155,3.134,192,1.743,2.449,31.97952,1.988,50.33,57.97,33.38,35.21
"2016-01-08 11:00:00",217135,0.291,75.19,-2.773,88.4,17.2166,0,860.9964,0,6.179,3.134,197,1.731,2.449,33.98108,1.975,50.33,57.97,33.38,35.21
"2016-01-08 11:10:00",217136,0.417,134.1,-2.684,86.6,33.3009,0,860.9269,0,5.93,3.135,187,1.732,2.449,68.36777,2.047,50.33,57.97,33.38,35.21
"2016-01-08 11:20:00",217137,0.258,117.3,-2.491,84.2,24.26602,0,860.8995,0,5.831,3.136,178,1.702,2.422,48.93594,2.015,50.33,57.97,33.38,35.21
"2016-01-08 11:30:00",217138,0.248,37.13,-2.58,85.6,23.34601,0,860.6931,0,5.731,3.137,182,1.703,2.411,47.12391,2.011,50.33,57.97,33.38,35.21
"2016-01-08 11:40:00",217139,0.208,52.81,-2.38,84.7,37.71612,0,860.6109,0,5.706,3.136,192,1.714,2.421,78.42487,2.08,50.33,57.97,33.38,35.21
"2016-01-08 11:50:00",217140,0.226,34.31,-2.284,81.6,37.51167,0,860.4739,0,5.731,3.136,192,1.712,2.445,76.13521,2.029,50.39,57.97,33.39,35.21
"2016-01-08 12:00:00",217141,0.241,356.4,-2.23,80.1,48.13494,0,860.345
"2016-01-08 12:00:00",217141,0.241,356.4,-2.23,80.1,48.13494,0,860.3454,0,5.657,3.135,190,1.693,2.484,98.33057,2.046,50.39,57.97,33.39,35.21
"2016-01-08 12:10:00",217142,0.192,30.07,-2.063,78.02,46.09442,0,860.2885,0,5.731,3.136,192,1.673,2.484,93.15228,2.017,50.33,57.97,33.38,35.21
"2016-01-08 12:20:00",217143,0.195,5.074,-2.135,79.84,28.88961,0,860.1515,0,5.582,3.137,187,1.672,2.481,57.36676,1.981,50.33,57.97,33.38,35.21
"2016-01-08 12:30:00",217144,0.229,87.3,-2.43,80.7,12.36891,0,860.1515,0,5.681,3.138,192,1.674,2.49,23.40085,1.899,50.33,57.91,33.38,35.2
"2016-01-08 12:40:00",217145,0.092,270.2,-2.595,82.7,14.68857,0,860.0735,0,5.581,3.139,191,1.702,2.491,29.34488,1.987,50.33,57.97,33.38,35.21
"2016-01-08 12:50:00",217146,0.276,78.26,-2.482,81.8,33.10039,0,859.926,0,5.731,3.137,192,1.69,2.491,68.43222,2.06,50.33,57.91,33.38,35.2
"2016-01-08 13:00:00",217147,0.336,82.2,-2.178,80.3,47.32895,0,859.9134,0,5.756,3.134,189,1.672,2.492,97.7354,2.064,50.33,57.91,33.38,35.2
"2016-01-08 13:10:00",217148,0.36,54.73,-1.945,78.78,41.88758,0,859.9134,0,5.682,3.135,193,1.671,2.471,84.22485,2.009,50.33,57.91,33.38,35.2
"2016-01-08 13:20:00",217149,0.337,53.04,-2.167,77.22,28.83064,0,859.9113,0,5.706,3.135,193,1.667,2.478,57.46532,1.994,50.33,57.91,33.38,35.2
"2016-01-08 13:30:00",217150,0.249,83.9,-2.03,77.06,26.9238,0,859.8192,0,5.582,3.136,188,1.671,2.486,54.25448,2.016,50.33,57.91,33.38,35.2
"2016-01-08 13:40:00",217151,0.387,96.7,-2.067,76.65,41.62023,0,859.6248,0,5.433,3.137,191,1.667,2.481,84.33479,2.025,50.33,57.91,33.38,35.2
"2016-01-08 13:50:00",217152,0.569,132.5,-2.038,76.18,50.39956,0,859.4308,0,5.184,3.14,186,1.635,2.462,100.4193,1.993,50.33,57.91,33.38,35.2
"2016-01-08 14:00:00",217153,0.576,140.7,-2.039,75.79,48.11921,0,859.4475,0,4.91,3.143,192,1.668,2.448,95.59737,1.986,50.33,57.97,33.38,35.21
"2016-01-08 14:10:00",217154,0.254,137.4,-1.986,75.3,29.14429,0,859.6443,0,4.744,3.144,184,1.692,2.455,58.83205,2.019,50.33,57.91,33.38,35.2
"2016-01-08 14:20:00",217155,0.219,115.8,-1.951,75.03,33.78897,0,859.5453,0,4.653,3.144,183,1.683,2.447,70.41537,2.084,50.33,57.91,33.38,35.2
"2016-01-08 14:30:00",217156,0.286,58.62,-1.716,74.02,42.93645,0,859.4262,0,4.852,3.141,188,1.686,2.448,88.22189,2.055,50.39,57.91,33.39,35.2
"2016-01-08 14:40:00",217157,0.359,68.5,-1.81,73.6,28.88198,0,859.563,0,4.879,3.142,192,1.682,2.45,59.88378,2.074,50.39,57.91,33.39,35.2
"2016-01-08 14:50:00",217158,0.154,49.44,-1.936,73.94,20.32783,0,859.5529,0,4.155,3.149,179,1.679,2.425,41.03052,2.017,50.33,57.91,33.38,35.2
"2016-01-08 15:00:00",217159,0.418,130.9,-2.029,76.44,24.33819,0,859.5705,0,4.252,3.15,175,1.687,2.434,48.2751,1.984,50.33,57.91,33.38,35.2
"2016-01-08 15:10:00",217160,0.117,149.5,-2.157,79.39,22.69507,0,859.5912,0,5.298,3.139,179,1.679,2.438,44.93599,1.981,50.33,57.91,33.38,35.2
"2016-01-08 15:20:00",217161,0.301,115.4,-2.189,80.8,14.79706,0,859.583,0,5.349,3.14,188,1.66,2.46,28.88687,1.949,50.33,57.91,33.38,35.2
"2016-01-08 15:30:00",217162,0.205,122.8,-2.579,83.2,12.34803,0,859.4913,0,5.546,3.14,193,1.676,2.464,23.6942,1.924,50.33,57.91,33.38,35.2
"2016-01-08 15:40:00",217163,0.045,96,-2.667,85.8,7.481297,0,859.6093,0,5.54,3.14,193,1.66,2.472,15.01432,2.006,50.33,57.91,33.38,35.2
"2016-01-08 15:50:00",217164,0.035,118.1,-2.622,88.8,9.526003,0,859.6237,0,5.311,3.142,188,1.675,2.483,19.82539,2.078,50.33,57.91,33.38,35.2
"2016-01-08 16:00:00",217165,0.007,5.254,-2.713,89.1,6.455643,0,859.6425,0,5.882,3.137,188,1.679,2.489,13.42696,2.063,50.33,57.91,33.38,35.2
"2016-01-08 16:10:00",217166,0.132,83.4,-2.857,91.4,4.112464,0,859.6337,0,4.638,3.15,194,1.683,2.491,7.998631,1.937,50.33,57.91,33.38,35.2
"2016-01-08 16:20:00",217167,0.199,106.2,-2.994,92.2,6.180511,0,859.6248,0,5.757,3.14,241,1.702,2.492,12.47942,2.011,50.33,57.91,33.38,35.2
"2016-01-08 16:30:00",217168,0.221,152.1,-3.056,92.7,4.387695,0,859.6622,0,6.627,3.132,202,1.711,2.48,8.635524,1.968,50.33,57.91,33.38,35.2
"2016-01-08 16:40:00",217169,0.369,132.2,-3.227,92.8,2.767865,0,859.9064,0,6.478,3.134,201,1.714,2.472,5.265472,1.902,50.33,57.91,33.38,35.2
"2016-01-08 16:50:00",217170,0.248,137.3,-3.284,93.6,1.171625,0,859.9343,0,6.577,3.133,194,1.714,2.447,2.304828,1.961,50.33,57.91,33.38,35.2
"2016-01-08 17:00:00",217171,0.395,136.7,-3.372,94.6,0.3184618,0,860.0798,0,7.173,3.128,196,1.714,2.449,0.4321553,1.334,50.33,57.91,33.38,35.2
"2016-01-08 17:10:00",217172,0.172,122.9,-3.391,94.9,0.04717952,0,860.2547,0,6.627,3.133,180,1.714,2.449,0.05307171,0.193,50.33,57.91,33.38,35.2
"2016-01-08 17:20:00",217173,0.252,152.6,-3.392,95,0,0,860.2041,0,6.527,3.134,193,1.714,2.448,0,0,50.33,57.91,33.38,35.2
"2016-01-08 17:30:00",217174,0.078,135.2,-3.3,93.8,0,0,860.3284,0,6.229,3.137,198,1.718,2.449,0,0,50.33,57.91,33.38,35.2
"2016-01-08 17:40:00",217175,0.163,140.3,-3.351,92.9,0,0,860.419,0,6.379,3.135,200,1.718,2.45,0.1250976,0,50.39,57.91,33.39,35.2
"2016-01-08 17:50:00",217176,0.284,183.3,-3.339,92.6,0,0,860.419,0,6.13,3.138,193,1.731,2.45,0.02274502,0,50.39,57.91,33.39,35.2
"2016-01-08 18:00:00",217177,0.124,183.2,-3.285,92.3,0,0,860.419,0,7.522,3.123,199,1.741,2.45,0.1592151,0,50.33,57.91,33.38,35.2
"2016-01-08 18:10:00",217178,0.142,132.6,-3.288,92.7,0,0,860.419,0,7.074,3.128,208,1.738,2.449,0.1895418,0,50.33,57.91,33.38,35.2
"2016-01-08 18:20:00",217179,0.135,141.5,-3.348,93.2,0,0,860.419,0,5.037,3.149,229,1.747,2.454,0,0,50.33,57.91,33.38,35.2
"2016-01-08 18:30:00",217180,0.129,160.5,-3.411,93.6,0,0,860.419,0,7.248,3.127,200,1.752,2.466,0,0,50.33,57.91,33.38,35.2
"2016-01-08 18:40:00",217181,0.094,216,-3.425,92.8,0,0,860.419,0,8.34,3.116,181,1.754,2.488,0,0,50.33,57.91,33.38,35.2
"2016-01-08 18:50:00",217182,0.019,9.91,-3.437,92.8,0,0,860.419,0,8.52,3.114,194,1.747,2.487,0,0,50.33,57.91,33.38,35.2
"2016-01-08 19:00:00",217183,0.07,342.3,-3.378,92.1,0,0,860.419,0,8.64,3.113,198,1.75,2.486,0.1781693,0,50.28,57.91,33.37,35.2
"2016-01-08 19:10:00",217184,0.063,109.6,-3.389,92.4,0,0,860.419,0,8.54,3.114,198,1.752,2.482,0.3108486,0,50.28,57.91,33.37,35.2
"2016-01-08 19:20:00",217185,0.093,150.8,-3.399,93.1,0,0,860.419,0,8.47,3.115,195,1.751,2.478,0.2274502,0,50.33,57.91,33.38,35.2
"2016-01-08 19:30:00",217186,0.177,151.5,-3.388,93.8,0,0,860.4717,0,8.34,3.116,201,1.747,2.489,0.2274502,0,50.33,57.91,33.38,35.2
"2016-01-08 19:40:00",217187,0.042,63.98,-3.335,94.3,0,0,860.6465,0,8.07,3.118,201,1.728,2.483,0.2274502,0,50.33,57.91,33.38,35.2
"2016-01-08 19:50:00",217188,0.015,109.5,-3.22,94.3,0,0,860.6719,0,8.44,3.114,184,1.738,2.489,0.2274502,0,50.28,57.91,33.37,35.2
"2016-01-08 20:00:00",217189,0.092,59.43,-3.317,94.4,0,0,860.6719,0,8.24,3.117,188,1.733,2.487,0.2274502,0,50.33,57.91,33.38,35.2
"2016-01-08 20:10:00",217190,0,0,-3.316,95.7,0,0,860.6719,0,7.198,3.127,186,1.731,2.48,0.1175159,0,50.28,57.91,33.37,35.2
"2016-01-08 20:20:00",217191,0,0,-3.331,96.3,0,0,860.676,0,8.09,3.118,180,1.722,2.482,0.1099343,0,50.33,57.91,33.38,35.2
"2016-01-08 20:30:00",217192,0.091,350.8,-3.334,96.8,0,0,860.7181,0,8.91,3.11,225,1.718,2.484,0.1781693,0,50.33,57.91,33.38,35.2
"2016-01-08 20:40:00",217193,0.101,298.2,-3.404,97.5,0,0,860.8952,0,9.58,3.103,265,1.719,2.482,0.01516335,0,50.28,57.91,33.37,35.2
"2016-01-08 20:50:00",217194,0.075,309.3,-3.368,98.3,0,0,860.9141,0.5,9.24,3.107,220,1.719,2.474,0.003790837,0,50.33,57.91,33.38,35.2
"2016-01-08 21:00:00",217195,0.068,299.4,-3.406,99.4,0,0,860.9225,0,9.21,3.107,196,1.718,2.477,0,0,50.28,57.91,33.37,35.2
"2016-01-08 21:10:00",217196,0,0,-3.404,100,0,0,860.9247,0,9.26,3.107,196,1.726,2.474,0,0,50.33,57.91,33.38,35.2
"2016-01-08 21:20:00",217197,0.013,194.2,-3.371,99.7,0,0,860.9225,0,9.18,3.107,196,1.741,2.473,0.05686356,0,50.28,57.91,33.37,35.2
"2016-01-08 21:30:00",217198,0.046,177,-3.474,99.6,0,0,860.8762,0,9.18,3.108,196,1.74,2.474,0,0,50.33,57.91,33.38,35.2
"2016-01-08 21:40:00",217199,0.043,155.8,-3.555,100,0,0,860.7413,0,9.13,3.109,196,1.743,2.482,0,0,50.28,57.91,33.37,35.2
"2016-01-08 21:50:00",217200,0,0,-3.479,99,0,0,860.7055,0,8.94,3.11,192,1.753,2.479,0.003790872,0,50.28,57.91,33.37,35.2
"2016-01-08 22:00:00",217201,0,0,-3.406,96.2,0,0,860.7919,0,8.81,3.111,197,1.746,2.488,0.2274534,0,50.33,57.91,33.38,35.2
"2016-01-08 22:10:00",217202,0,0,-3.323,95,0,0,860.7455,0,9.01,3.109,197,1.727,2.489,0.2767338,0,50.28,57.91,33.37,35.2
"2016-01-08 22:20:00",217203,0.004,312.1,-3.403,94.2,0,0,860.6992,0,9.09,3.109,197,1.723,2.488,0.2009151,0,50.33,57.91,33.38,35.2
"2016-01-08 22:30:00",217204,0.083,320,-3.459,94.3,0,0,860.8635,0,9.16,3.108,202,1.717,2.488,0.2274505,0,50.28,57.91,33.37,35.2
"2016-01-08 22:40:00",217205,0.02,300.9,-3.439,97.2,0,0,860.9293,0,8.64,3.113,201,1.715,2.477,0.2274504,0,50.28,57.91,33.37,35.2
"2016-01-08 22:50:00",217206,0.002,52.73,-3.424,98.8,0,0,860.9266,0.5,10.06,3.099,213,1.715,2.47,0.2198686,0,50.28,57.91,33.37,35.2
"2016-01-08 23:00:00",217207,0.01,333,-3.42,99.3,0,0,860.9153,0,5.383,3.146,225,1.717,2.469,0.06823561,0,50.33,57.91,33.38,35.2
"2016-01-08 23:10:00",217208,0.073,66.45,-3.463,100,0,0,860.7727,0,2.726,3.173,230,1.717,2.48,0.1971257,0,50.33,57.91,33.38,35.2
"2016-01-08 23:20:00",217209,0.142,40.32,-3.571,99.8,0,0,860.6723,0,9.56,3.105,219,1.716,2.484,0.007581729,0,50.28,57.91,33.37,35.2
"2016-01-08 23:30:00",217210,0.399,354.6,-3.507,95.7,0,0,860.7985,0
"2016-01-08 23:30:00",217210,0.399,354.6,-3.507,95.7,0,0,860.7985,0,9.86,3.101,209,1.715,2.488,0.1250978,0,50.28,57.91,33.37,35.2
"2016-01-08 23:40:00",217211,0.151,321.4,-3.515,96,0,0,860.7836,0,8.34,3.117,212,1.714,2.486,0,0,50.33,57.91,33.38,35.2
"2016-01-08 23:50:00",217212,0.018,328.9,-3.487,97,0,0,860.6719,0,10.35,3.096,199,1.714,2.475,0.03790839,0,50.28,57.86,33.37,35.18
